Wind_Speed
21 21 21 21 20 20 20 20 19 18 18 17 17 16 16 16 16 16 16 16 15 15 14 13 12 11 10 10 11 12 13 15 16 17 18 16 14 15 15 16 16 14 14 15 16 16 16 16 17 17 16 15 14 13 11 10 9 9 8 7 5 5 5 3 2 2 2 2 1 1 2 3 4 6 6 7 7 6 4 2 2 1 2 5 4 3 4 5
23 22 22 22 22 22 21 21 20 20 19 19 19 18 17 17 17 17 17 18 17 16 15 14 14 13 12 11 11 11 12 14 16 20 19 14 14 17 16 16 16 15 15 16 17 18 19 19 19 19 17 17 16 14 13 12 10 9 9 8 6 5 5 4 1 0 2 1 1 1 2 3 3 5 6 7 5 5 5 3 2 2 2 3 5 4 4 4
23 23 23 23 23 23 22 22 21 21 21 20 20 20 19 18 17 17 18 19 19 18 17 15 15 15 14 12 12 11 12 13 16 20 16 12 15 17 17 18 17 17 17 17 18 18 20 21 21 20 19 19 18 16 15 13 11 10 10 9 8 5 4 5 3 2 2 2 1 0 2 2 3 5 6 8 7 5 5 5 4 4 4 3 4 5 4 4
23 23 23 23 23 23 23 23 22 22 21 21 21 21 21 19 18 18 19 20 20 20 19 17 16 16 16 15 13 12 12 12 15 19 16 15 18 19 19 18 18 19 19 19 18 19 21 21 21 21 21 20 20 19 17 14 13 12 11 10 9 7 6 5 5 5 4 3 2 2 4 4 4 6 6 7 7 5 4 5 4 3 4 4 4 5 5 5
24 24 23 24 24 24 24 24 24 23 22 22 22 22 22 21 20 19 19 20 20 21 20 18 17 17 17 17 15 14 12 11 16 19 15 16 20 21 21 20 19 19 20 20 20 19 20 20 20 21 21 21 21 20 18 16 15 13 12 12 9 8 7 5 6 8 6 5 5 6 6 4 4 6 7 6 5 5 3 4 4 4 5 5 5 5 6 6
25 25 24 25 25 25 25 24 25 24 24 24 23 23 23 22 22 21 20 20 21 22 21 20 18 18 18 18 17 16 13 13 17 16 12 14 19 23 23 22 21 20 20 20 21 20 20 19 19 19 20 21 21 19 18 18 16 15 13 12 9 9 9 6 6 7 9 9 7 7 6 3 4 5 6 6 6 4 2 2 3 4 5 5 5 5 6 6
27 26 26 26 26 26 26 25 25 25 25 25 25 25 24 23 23 22 22 21 21 22 22 21 20 19 19 19 18 17 16 16 15 15 15 16 18 22 24 23 22 21 20 20 21 22 20 19 18 18 19 20 20 19 20 19 17 16 15 12 10 10 10 9 7 5 8 9 8 8 6 3 4 4 5 7 7 4 2 2 3 4 5 4 4 4 5 6
30 29 29 28 28 28 27 27 27 27 27 26 26 26 26 25 24 24 24 22 22 22 23 22 21 21 20 20 18 18 19 16 14 17 20 17 18 21 23 24 24 23 22 22 22 23 22 20 18 18 19 19 20 20 22 21 18 17 16 14 13 12 11 12 12 8 7 8 7 9 7 4 4 5 6 8 6 4 3 4 4 5 4 3 4 4 4 5
32 31 31 31 31 30 30 29 29 28 28 27 27 27 27 27 26 25 25 24 24 23 23 22 22 22 22 21 18 19 21 18 15 19 21 18 17 20 22 23 25 25 25 24 24 24 23 20 18 19 19 21 22 23 23 22 19 17 17 16 16 15 13 13 14 12 11 9 8 10 8 4 5 5 7 9 7 3 2 4 4 4 2 3 4 4 4 5
33 32 32 32 32 32 32 32 31 31 30 29 29 29 29 28 28 27 26 26 25 25 24 23 23 23 23 22 18 21 25 20 17 19 20 19 19 20 21 21 23 26 27 26 26 25 24 21 20 20 22 24 23 23 24 22 20 19 19 19 18 17 16 16 14 13 13 10 9 11 8 5 7 7 9 12 9 5 3 4 3 2 3 3 4 5 6 6
34 34 33 33 33 33 33 33 33 33 33 32 31 31 31 30 29 29 28 28 27 27 25 24 23 22 24 21 19 26 26 20 18 19 20 21 21 20 20 20 21 24 27 28 27 26 26 25 24 23 23 24 24 24 24 22 21 21 21 22 20 19 19 17 15 13 13 11 11 13 9 7 8 9 13 14 9 6 3 2 2 3 5 4 5 6 6 6
35 35 35 34 35 35 35 35 34 34 34 34 34 33 33 32 32 31 30 30 29 29 27 26 24 23 23 19 22 30 26 19 19 19 21 23 23 21 20 20 21 23 26 28 29 28 28 28 28 26 23 24 25 24 22 21 21 22 22 23 21 19 18 17 15 14 13 12 12 13 10 9 9 9 15 16 11 8 4 1 3 4 6 6 6 6 6 7
35 36 36 36 36 36 36 36 36 36 36 36 35 35 35 35 35 33 32 31 31 30 29 29 26 25 22 18 25 32 25 21 20 19 22 24 24 23 20 21 21 22 24 26 29 30 30 30 30 27 26 26 26 25 23 22 23 24 25 25 22 18 16 15 15 15 13 13 13 14 11 9 10 9 15 18 12 9 5 2 4 5 6 6 6 6 6 6
35 35 36 36 36 36 37 37 37 37 37 37 36 36 36 37 37 36 35 34 33 32 31 31 29 27 22 18 28 32 25 24 21 20 23 25 27 25 21 22 22 22 23 25 28 30 31 32 31 30 29 27 26 26 27 28 27 26 26 25 22 18 14 15 17 17 14 12 13 14 12 10 7 6 15 21 13 9 9 5 5 6 6 6 7 7 6 6
34 35 35 35 35 36 36 37 37 37 38 38 38 38 37 38 38 38 38 37 36 34 34 33 31 30 24 21 30 31 25 24 22 24 27 27 28 26 23 23 23 23 23 25 27 29 32 33 33 32 30 27 27 28 29 30 27 25 25 23 19 16 14 16 17 17 15 14 15 15 13 10 5 6 17 24 17 13 13 8 5 6 6 7 8 8 7 7
36 36 36 36 36 36 36 36 36 37 37 38 39 39 39 39 39 39 39 39 39 37 37 35 33 32 27 26 30 31 27 26 27 29 28 28 28 26 25 25 25 25 24 25 26 28 31 33 34 33 32 31 29 29 30 29 25 24 24 21 18 16 16 17 15 15 16 15 16 16 13 9 6 7 19 25 21 15 12 9 6 6 6 7 8 9 8 8
38 38 38 38 38 38 37 37 37 37 37 37 38 39 39 40 41 41 40 40 41 40 40 38 36 35 31 30 31 32 31 28 29 29 27 28 28 27 27 26 26 27 26 26 27 27 29 32 34 34 34 33 30 30 31 28 24 23 22 19 17 16 16 16 14 15 16 14 13 15 17 13 10 8 18 24 22 15 10 9 7 5 5 7 9 9 8 8
40 40 41 41 40 40 39 39 38 38 37 37 38 38 39 40 41 41 41 42 42 42 43 41 40 37 33 33 33 34 33 30 30 29 27 28 29 29 29 28 29 29 29 29 27 27 29 29 32 35 35 33 31 31 28 23 21 21 20 19 18 17 16 16 14 12 12 13 12 14 17 15 14 13 20 24 24 17 11 11 8 7 7 7 9 8 7 8
43 43 44 44 43 43 43 42 41 40 39 39 39 39 39 39 40 41 41 42 43 44 44 43 42 39 36 36 35 36 36 34 33 31 29 29 30 31 31 30 31 31 31 29 27 28 28 29 33 33 30 29 29 28 25 21 22 21 21 21 20 18 16 15 15 9 6 12 14 16 17 14 16 17 21 24 26 20 13 12 9 7 8 7 8 8 9 9
46 46 46 47 47 47 47 46 45 44 43 41 41 40 41 40 40 41 41 41 43 44 45 45 43 40 39 39 38 39 39 38 36 33 32 31 32 32 33 33 32 33 32 29 28 29 30 32 31 26 23 25 28 28 26 25 25 24 24 24 21 19 17 15 15 12 8 14 18 18 17 17 17 19 22 26 28 23 14 12 8 6 7 9 9 10 11 11
48 48 48 48 49 49 49 50 49 49 48 46 44 43 43 42 42 42 41 40 41 44 45 46 46 41 40 42 41 40 41 41 38 36 34 34 35 35 34 34 33 33 30 29 31 32 35 33 24 20 22 26 29 29 29 30 28 26 27 26 22 22 19 16 16 16 14 19 20 20 17 17 19 20 24 29 28 24 17 12 6 5 8 10 12 13 13 13
48 48 49 49 49 49 49 50 51 51 51 51 49 48 47 45 44 44 43 40 40 43 45 44 45 42 39 42 45 44 43 42 41 38 37 37 37 37 36 34 33 31 30 33 35 36 37 28 19 21 25 26 29 31 32 32 31 29 29 27 26 26 20 15 17 21 18 22 23 23 19 16 17 19 24 30 27 22 19 15 10 9 9 8 13 16 15 13
48 49 49 49 49 50 49 50 51 51 51 52 52 52 51 50 49 46 45 42 38 41 45 42 43 43 39 41 46 47 45 43 42 40 40 40 39 38 37 36 33 31 33 36 36 35 31 21 20 26 27 27 29 30 33 34 35 34 32 31 28 26 22 17 17 21 22 24 26 26 23 19 17 17 22 27 27 25 22 19 16 13 11 7 12 17 16 13
49 49 49 49 49 50 50 50 50 51 51 51 51 52 53 53 53 50 47 44 39 40 45 43 41 41 39 39 45 49 47 45 45 43 43 43 41 40 39 37 35 34 35 35 35 34 27 21 27 31 28 28 29 30 33 36 38 36 34 34 29 26 25 20 17 15 17 24 27 24 24 22 19 19 21 23 25 25 24 24 20 15 12 9 10 15 15 13
50 50 50 50 49 50 51 51 50 51 51 51 51 51 51 52 53 54 51 46 43 44 44 43 43 41 39 41 46 50 49 46 45 45 46 45 43 42 42 40 38 37 37 36 35 34 28 26 32 33 31 30 30 31 33 34 36 37 35 34 30 27 28 24 24 18 17 21 26 24 23 23 21 21 22 21 22 23 26 27 24 19 14 10 9 13 15 14
49 50 50 50 49 48 49 50 50 51 51 51 52 52 52 52 52 53 53 49 49 50 47 46 47 45 43 43 45 48 49 47 45 46 47 46 45 45 45 44 41 39 38 37 37 35 31 31 35 34 32 30 32 32 32 32 34 36 35 33 32 31 31 28 31 29 25 22 25 28 28 26 26 26 24 21 21 23 28 30 29 27 20 11 10 14 16 16
46 46 47 48 48 45 44 45 46 48 49 49 51 52 53 53 53 52 51 50 49 50 50 50 49 47 46 45 45 47 49 47 44 45 48 47 47 47 47 46 44 42 40 40 41 37 32 34 36 35 32 32 34 32 30 31 32 33 32 33 34 34 34 33 34 37 33 28 26 30 31 29 31 31 25 20 21 25 31 33 33 33 25 16 11 12 16 18
41 41 41 42 44 44 42 41 42 43 45 46 47 49 51 52 54 52 49 45 42 43 47 50 50 50 50 48 47 47 47 46 43 43 46 48 47 47 48 48 46 44 43 43 42 35 31 34 36 35 34 34 33 29 27 30 32 31 31 34 36 36 36 36 36 38 37 33 31 28 29 31 32 29 25 24 24 29 34 35 35 34 28 20 13 10 15 18
37 38 39 39 41 43 41 40 39 39 39 41 42 44 46 49 51 51 48 40 34 39 46 49 51 53 53 52 50 48 47 47 46 44 46 49 50 48 48 48 48 46 45 44 43 38 34 35 37 37 36 35 32 29 29 31 33 30 30 34 36 37 38 38 39 39 41 40 39 34 28 29 31 31 29 27 26 29 34 34 33 31 25 20 13 10 15 17
37 39 39 39 39 40 39 39 38 36 34 35 37 37 39 42 45 47 46 37 30 37 45 48 51 52 52 54 54 51 49 49 48 46 46 49 51 49 48 48 49 49 47 47 46 43 39 37 38 39 37 36 33 31 31 32 32 29 30 34 37 39 40 42 42 41 44 48 46 41 34 31 33 35 33 28 24 24 27 30 32 28 20 16 12 8 13 17
40 41 42 41 39 37 37 37 36 35 35 36 37 37 36 38 40 41 39 34 30 34 41 47 50 51 52 54 55 55 53 51 49 48 47 49 51 52 50 50 51 52 51 51 49 46 44 43 42 40 38 37 36 34 34 34 33 31 31 35 38 39 38 40 43 44 49 51 45 41 39 38 39 38 32 28 26 26 22 23 28 27 18 14 12 8 9 14
41 42 43 42 39 37 36 36 36 36 37 39 40 40 38 38 39 37 34 32 33 34 40 47 50 51 52 53 54 56 55 52 50 50 49 48 51 53 53 52 52 54 54 53 51 49 47 45 43 42 40 39 38 37 37 37 35 34 34 36 39 40 38 39 43 47 51 49 43 40 40 42 43 39 29 23 25 25 19 17 23 26 24 20 14 8 7 12
43 43 43 42 40 39 38 38 37 37 38 40 41 41 39 38 38 36 33 32 35 37 43 50 52 53 53 51 50 54 55 52 47 46 48 49 50 52 53 51 50 52 52 51 51 50 47 45 44 43 42 41 40 40 41 40 38 36 36 37 38 39 40 42 44 46 47 44 41 41 42 44 44 37 31 28 28 25 17 18 25 27 28 26 21 15 12 12
43 42 41 42 41 39 39 38 38 38 39 40 40 40 38 38 38 36 34 31 31 36 44 50 52 52 52 47 43 47 53 51 46 41 40 44 49 51 53 52 50 51 51 50 51 51 49 48 46 44 44 43 41 41 41 39 37 35 34 35 35 36 39 41 41 42 43 42 41 43 44 45 42 36 34 35 35 32 25 24 28 29 30 30 28 24 19 16
43 41 39 39 39 38 38 37 38 38 39 39 40 39 37 36 36 35 34 30 25 32 40 46 51 49 47 45 42 44 51 51 50 49 42 39 45 49 52 53 51 50 51 52 51 52 52 49 45 44 44 43 40 40 40 39 37 36 35 37 36 36 36 37 37 38 39 40 41 43 43 40 37 34 36 38 37 37 34 31 30 31 32 33 31 28 23 17
41 41 39 37 36 38 38 38 39 39 39 40 39 37 34 32 33 33 32 30 24 27 38 46 53 49 45 48 48 49 52 50 50 52 49 45 44 44 47 50 50 49 50 52 53 52 52 49 46 45 45 43 41 40 41 41 38 37 39 39 36 33 33 34 37 37 38 40 39 39 37 34 34 34 36 39 36 33 34 33 32 34 34 31 30 25 18 15
40 41 41 38 35 37 40 40 41 42 42 40 37 33 31 29 29 30 29 30 26 23 35 47 53 51 48 49 50 51 53 50 49 50 48 48 44 38 37 38 41 44 46 49 51 51 51 49 48 46 45 43 42 41 41 41 39 38 40 38 35 34 33 34 37 38 38 38 34 32 32 31 32 31 30 32 31 27 26 27 33 36 35 32 30 25 18 17
39 40 40 40 37 38 42 42 43 43 40 37 33 30 29 27 26 27 27 29 28 21 30 44 53 53 49 49 52 53 51 49 50 50 47 47 47 44 40 38 39 43 44 45 48 50 49 47 44 46 46 43 41 42 42 41 40 40 40 38 37 37 36 37 39 38 36 34 30 29 29 28 29 29 25 23 23 21 20 21 27 32 34 35 33 28 22 20
39 40 41 42 40 40 43 42 41 40 36 32 30 27 27 26 24 24 24 26 29 24 24 38 50 53 49 49 53 54 52 50 51 52 50 50 52 52 52 50 46 45 45 48 49 49 50 47 42 42 43 41 41 45 46 44 42 41 40 40 38 36 37 39 39 36 33 31 28 26 26 27 27 24 21 18 17 16 16 18 22 26 31 36 35 30 26 24
41 41 44 45 44 42 42 41 39 37 33 29 28 26 26 24 22 22 22 24 27 24 23 31 41 48 50 50 52 55 55 53 53 54 55 56 55 56 58 55 47 43 45 53 57 53 51 51 47 38 31 34 41 49 50 46 44 45 45 44 42 39 36 36 37 35 32 31 28 24 22 22 19 15 16 17 16 14 13 15 20 24 27 31 32 29 27 21
42 42 44 44 42 39 40 40 38 36 32 29 27 27 24 22 21 21 21 22 24 22 22 25 31 40 47 51 52 55 56 56 57 57 57 61 59 56 58 55 50 45 45 52 57 55 52 54 51 40 30 32 40 46 50 48 44 44 45 46 45 41 36 36 37 35 32 31 29 24 18 13 10 12 16 17 15 15 14 15 19 24 27 28 28 27 25 21
41 41 42 41 38 36 38 40 38 35 32 29 27 26 23 21 22 20 19 20 20 20 20 21 26 34 40 47 52 54 56 58 60 57 56 63 63 58 56 55 54 51 49 53 58 59 58 57 52 44 39 34 34 35 40 45 43 42 43 44 44 43 40 39 38 34 32 32 31 27 19 12 10 14 15 15 16 18 17 16 18 22 26 28 27 25 25 24
40 40 39 37 36 37 40 41 38 34 32 29 26 25 23 22 21 19 18 18 19 20 20 20 24 29 34 41 48 53 56 60 61 58 56 60 62 59 57 57 58 57 56 56 59 62 61 58 53 46 40 36 31 30 33 35 37 40 43 43 43 43 43 41 38 34 33 32 32 32 27 21 14 11 12 16 20 20 16 16 19 21 24 27 27 25 26 26
38 38 37 36 37 40 43 43 38 33 30 28 25 23 22 22 20 18 17 18 20 21 20 20 22 24 28 35 42 50 56 60 62 59 56 57 59 60 60 60 60 61 60 58 58 61 61 58 55 48 42 38 35 36 39 37 36 41 46 46 44 42 41 40 37 34 33 33 33 34 33 28 19 13 17 22 22 21 18 14 16 19 23 25 25 24 25 25
37 36 35 35 38 41 44 44 38 31 27 25 22 20 20 20 18 16 17 18 20 20 18 19 22 22 24 29 37 45 53 60 63 61 57 54 56 59 62 63 63 63 64 62 60 62 63 61 58 53 49 45 41 43 46 45 41 42 44 44 44 42 39 37 38 37 34 34 34 32 33 32 26 22 22 23 21 23 23 17 14 17 21 24 24 23 23 24
38 37 35 35 39 43 44 44 37 28 24 22 19 17 18 18 16 15 16 17 18 18 18 19 21 22 23 25 32 40 50 60 61 62 59 53 54 58 61 64 65 66 66 64 62 63 64 64 62 59 56 50 46 46 44 42 42 41 40 41 42 43 40 35 36 39 36 34 33 31 29 32 33 30 28 26 24 25 27 26 21 18 21 24 24 23 22 22
38 38 38 38 40 42 44 42 35 25 22 21 18 16 16 15 15 15 15 16 17 18 19 18 18 20 22 24 31 37 46 56 59 63 60 53 52 56 59 63 67 68 68 66 64 64 65 65 64 63 59 53 51 48 39 36 41 41 38 39 40 43 44 38 36 38 37 34 31 30 30 30 32 32 31 31 30 27 28 31 26 20 20 24 25 24 22 22
38 37 38 40 42 42 42 40 32 23 21 21 18 14 14 14 14 15 15 15 17 19 19 17 16 17 19 22 29 35 41 51 59 63 61 53 50 53 57 61 66 69 69 68 67 66 67 68 68 68 63 57 54 48 39 37 40 42 40 37 38 41 45 44 37 33 33 33 31 30 31 30 30 30 31 32 31 30 30 30 26 21 20 22 25 26 23 22
38 37 38 40 43 43 42 38 30 22 20 20 16 14 13 13 13 15 15 14 17 19 18 16 15 15 17 20 26 32 38 48 58 63 62 56 48 46 51 58 63 68 71 71 71 69 68 70 71 71 67 61 56 50 44 44 46 45 41 36 35 39 43 44 38 29 27 29 27 26 26 28 29 31 32 30 28 28 30 30 25 21 21 21 24 27 25 24
39 39 39 39 42 43 42 39 31 22 19 19 15 13 12 13 13 14 15 15 16 18 17 16 14 14 16 18 23 29 35 44 54 61 63 59 49 40 44 53 59 64 71 74 72 70 69 70 74 73 69 64 59 50 47 48 48 46 42 36 37 38 39 42 41 32 27 26 24 24 25 27 30 32 31 26 23 25 28 30 26 22 20 21 22 24 25 25
39 40 40 40 41 42 40 39 34 23 19 18 15 13 11 12 14 15 15 15 16 16 16 15 14 14 14 15 19 24 31 38 47 56 63 63 54 41 40 50 57 62 69 73 73 71 70 70 74 75 70 66 60 51 49 51 49 47 43 38 40 42 37 39 41 37 30 27 27 29 29 29 32 32 28 23 23 27 28 28 28 24 20 20 22 24 25 24
38 39 40 40 41 41 39 38 36 27 19 18 17 14 14 14 15 16 14 13 14 14 14 14 14 12 11 11 15 20 27 34 40 50 60 64 59 46 38 45 56 61 64 70 72 71 70 69 73 75 71 68 63 54 51 54 52 49 45 40 40 42 37 35 39 40 34 29 30 34 31 30 33 32 27 26 28 31 30 28 29 28 22 21 22 24 26 25
Wind_Direction
297 296 296 295 295 294 294 293 293 292 291 289 287 284 280 279 278 279 280 279 277 274 273 273 271 267 260 253 248 245 241 238 236 237 235 227 224 232 231 228 233 230 223 221 215 214 218 217 221 225 228 230 228 227 224 217 205 198 207 207 211 203 182 208 319 297 237 319 320 197 298 315 327 321 323 341 345 336 342 357 341 324 277 274 287 295 283 273
295 295 294 294 293 292 292 291 291 291 290 289 288 285 282 279 275 275 275 275 273 272 270 269 270 267 261 254 248 244 241 238 236 237 234 224 227 233 232 233 236 234 228 225 218 213 216 217 221 226 228 232 233 231 229 226 217 209 209 208 212 207 200 205 146 242 243 301 226 183 327 318 326 309 316 334 338 338 349 11 354 319 301 281 289 302 301 285
293 293 293 292 291 291 290 289 289 289 289 288 287 286 284 280 277 273 270 270 270 270 269 267 266 266 263 256 249 243 238 237 237 239 237 232 235 235 233 233 233 233 231 230 224 217 218 220 221 225 228 232 235 234 232 230 225 218 215 211 211 204 195 190 182 201 214 239 230 10 304 296 304 292 315 328 331 350 352 7 8 336 343 327 304 302 295 283
294 293 292 292 290 290 289 288 288 287 287 286 286 285 284 282 278 274 270 268 268 268 267 265 263 262 261 258 252 245 236 235 242 242 237 234 235 234 234 233 232 231 231 233 231 222 223 226 225 226 228 230 233 236 235 231 229 224 220 218 211 201 198 207 227 217 202 242 281 323 273 271 289 291 315 319 325 355 0 1 8 351 350 342 330 314 296 284
293 293 292 291 290 289 288 287 287 286 285 284 284 283 283 283 280 276 271 268 266 266 265 263 261 260 258 257 254 248 236 232 241 242 235 231 233 233 232 232 231 231 231 233 235 229 226 227 228 229 230 231 233 237 236 231 229 227 225 224 216 208 208 215 234 226 223 249 276 287 272 275 284 290 308 302 308 336 352 351 342 344 356 348 338 322 305 292
290 290 290 290 289 289 288 287 286 285 284 283 282 282 281 281 280 278 274 270 266 264 263 261 260 258 257 254 253 251 241 233 241 245 237 231 234 234 232 231 230 230 230 231 235 235 230 227 227 230 232 233 235 237 236 232 230 228 227 228 225 222 214 197 215 234 232 231 246 258 251 268 271 281 302 293 306 336 27 11 325 324 346 344 333 323 305 288
286 286 286 286 286 286 286 286 285 284 283 282 281 280 280 279 279 278 276 273 268 264 262 260 258 257 256 253 251 251 246 237 240 246 237 225 228 234 232 231 231 230 229 229 232 235 234 231 226 227 228 232 235 234 235 235 232 228 226 229 229 232 227 206 207 239 242 227 226 243 246 258 266 281 293 287 308 345 11 341 308 308 329 327 320 323 304 286
284 283 282 282 282 282 282 282 282 282 281 281 280 279 279 278 277 276 276 275 271 267 263 260 257 256 255 253 250 250 249 240 234 239 238 226 223 231 231 229 230 230 229 228 229 232 234 232 227 224 224 228 229 228 232 233 231 228 226 227 226 231 235 227 227 233 241 235 228 238 244 246 260 278 276 274 296 317 307 306 304 310 325 317 314 319 302 288
284 283 282 281 280 279 278 278 278 279 279 279 278 277 277 276 276 274 274 274 272 270 265 260 257 255 254 253 250 251 248 236 229 236 240 233 226 231 233 229 228 229 229 229 229 231 233 232 227 223 220 222 223 224 229 232 230 226 224 226 227 229 230 230 231 225 226 233 236 238 236 240 253 253 260 267 269 258 278 297 299 304 313 317 317 317 302 288
285 284 283 281 280 279 277 276 275 275 275 276 276 276 275 275 274 273 272 272 271 271 268 263 258 254 253 252 251 252 246 234 230 239 242 239 231 230 233 232 229 230 230 229 229 231 233 232 228 222 218 219 221 223 229 231 230 226 225 227 228 227 226 225 227 226 226 226 232 240 228 226 245 239 252 263 258 239 249 279 278 269 285 318 321 315 307 296
284 283 282 281 280 279 278 276 275 273 272 272 272 272 273 273 272 271 270 270 269 269 268 266 260 255 252 251 252 250 245 236 232 240 244 242 238 233 232 232 230 231 232 230 229 230 231 230 230 226 220 221 222 225 229 230 229 228 227 229 231 228 226 221 218 224 229 221 222 233 221 214 237 247 261 265 257 246 248 258 245 266 287 311 318 315 313 306
285 284 282 281 279 278 277 276 275 273 272 270 269 269 269 270 270 269 268 268 267 267 267 266 263 258 253 251 252 249 244 239 231 235 243 242 240 236 233 232 230 230 232 233 230 229 229 230 230 229 224 222 222 225 229 230 233 235 233 233 233 231 229 223 217 220 224 219 217 224 219 215 226 240 266 270 259 249 236 236 276 281 287 307 318 318 320 314
287 285 284 282 280 278 277 275 274 273 272 270 269 267 266 266 266 266 266 266 265 265 264 264 263 260 254 248 250 248 244 241 233 231 241 244 242 237 234 234 231 229 230 231 232 230 229 230 232 230 227 224 222 221 222 223 227 232 235 235 233 231 229 225 226 225 222 219 220 223 217 222 229 227 256 263 253 253 253 256 294 274 264 293 309 311 318 313
290 288 287 285 283 281 279 277 275 273 271 270 268 266 265 264 263 263 263 263 263 262 262 261 260 259 254 245 249 250 245 241 238 234 237 241 242 236 233 234 232 230 229 230 231 231 229 230 232 231 229 227 225 223 219 221 222 225 231 234 234 232 229 226 227 226 223 222 226 227 217 217 227 233 262 264 252 253 266 271 286 267 259 285 299 299 310 312
293 291 289 287 285 283 281 279 277 275 272 270 268 266 264 263 262 261 261 260 260 260 260 259 258 257 252 243 248 252 247 243 240 237 235 236 239 236 231 233 233 230 229 229 230 231 230 230 231 232 232 229 227 226 224 226 227 225 229 232 232 229 230 233 229 222 218 221 224 223 223 222 208 231 261 269 273 269 266 265 262 253 260 281 295 299 306 318
294 293 291 289 287 285 283 281 279 277 274 272 270 267 264 262 261 260 259 259 258 258 257 257 256 255 249 242 247 252 247 241 237 236 236 238 240 239 233 232 234 232 229 230 230 231 231 231 231 231 231 230 228 228 228 231 230 227 230 230 227 222 224 236 240 229 216 216 225 218 215 214 165 208 250 266 279 272 255 253 245 232 245 269 289 296 302 320
294 293 291 290 288 287 284 282 280 278 276 274 271 269 266 263 261 259 258 257 256 256 255 255 255 253 248 242 244 248 248 243 240 238 239 242 242 240 236 232 233 234 231 229 229 230 232 231 231 231 231 230 229 228 229 232 231 230 233 231 226 219 215 223 236 240 223 210 230 224 210 199 156 192 248 263 270 262 245 245 246 249 251 265 282 290 297 314
294 292 291 289 288 286 285 283 281 279 277 275 273 270 268 265 262 259 257 256 255 255 254 253 252 251 249 246 244 246 248 245 242 239 238 241 241 240 238 233 232 234 232 230 229 230 232 232 232 231 231 230 229 230 232 235 235 233 235 232 227 221 213 211 214 231 229 208 226 237 221 199 162 190 238 255 263 258 235 230 243 269 263 260 277 286 295 306
293 292 290 289 288 286 285 283 281 279 277 275 273 271 269 266 264 260 257 256 255 254 253 252 251 249 248 246 243 244 245 243 242 238 237 239 240 240 238 235 233 233 233 232 231 232 232 232 233 232 234 235 233 233 233 235 235 232 233 231 226 222 216 214 204 193 218 223 234 245 239 217 173 192 231 246 258 255 226 230 258 278 267 268 282 292 297 301
293 291 290 289 287 286 285 283 281 279 277 275 273 271 270 267 265 262 258 256 255 254 254 253 250 247 246 245 242 242 243 243 242 240 237 237 238 238 237 235 234 233 234 234 234 234 234 233 234 237 239 239 236 234 231 231 230 226 229 229 224 223 217 216 203 170 190 235 244 249 250 243 205 200 229 240 249 252 238 244 272 298 285 286 287 293 298 298
292 290 289 287 286 285 284 283 282 280 278 276 273 271 269 267 266 263 259 257 256 255 252 253 252 246 244 247 244 240 241 242 241 240 239 239 239 239 237 235 235 235 235 235 235 234 235 233 234 237 236 234 234 232 230 229 228 224 227 227 222 220 213 211 198 167 191 232 244 252 254 249 222 204 227 241 245 252 252 246 265 290 279 290 295 290 289 291
292 290 288 287 285 283 281 280 279 278 278 276 275 273 270 267 265 264 261 257 257 257 254 251 253 249 243 245 245 240 239 240 239 238 238 239 240 241 240 237 236 236 234 234 234 234 236 235 232 234 233 230 228 228 227 227 227 224 225 226 222 217 205 200 190 166 188 230 243 249 251 252 235 208 225 246 253 259 256 244 253 260 249 283 297 284 278 280
295 293 291 289 287 284 282 280 278 276 274 273 273 272 270 269 266 264 262 259 255 256 257 252 251 250 245 244 246 242 239 239 239 236 236 237 239 241 242 240 237 235 234 234 235 237 239 236 231 231 229 228 226 225 225 225 224 222 220 222 222 219 206 190 185 173 183 218 237 245 248 252 244 221 224 243 258 267 264 256 253 240 225 252 281 274 271 275
297 296 294 292 291 288 285 283 281 277 274 272 270 268 268 267 266 264 262 260 256 252 255 255 251 249 246 244 245 243 238 236 236 235 234 235 236 238 240 239 237 235 235 236 237 238 234 227 228 229 226 225 225 224 224 224 223 221 218 219 218 221 217 192 184 200 200 211 228 239 245 245 238 233 235 241 255 266 270 268 259 244 238 241 256 264 263 264
301 299 297 295 295 293 289 287 286 282 278 275 271 268 265 263 264 264 262 261 258 253 252 253 252 248 243 241 242 242 239 235 235 235 234 233 233 236 237 237 235 234 235 235 236 235 229 225 229 229 225 223 224 224 225 226 226 222 218 218 214 215 221 198 177 203 227 222 226 228 231 240 239 237 240 241 250 264 271 271 267 262 256 234 231 252 256 258
305 304 302 299 298 298 295 292 291 288 285 281 276 272 268 263 260 260 261 260 257 254 250 247 247 246 242 240 242 243 240 236 234 235 235 233 231 232 234 235 233 233 234 234 235 232 224 224 229 230 228 225 225 225 225 226 227 225 218 216 215 212 216 204 179 188 211 220 229 234 231 238 246 243 240 236 235 249 262 266 266 266 260 246 236 240 249 258
309 308 306 303 301 301 300 299 297 294 291 287 282 278 273 268 262 258 257 257 255 253 249 245 242 242 240 237 237 240 239 236 234 235 236 234 231 230 232 234 233 232 232 233 233 230 224 224 229 231 230 229 227 225 226 228 228 227 219 212 215 214 214 209 190 186 197 204 217 237 242 240 245 248 245 240 227 228 245 254 256 260 262 266 257 233 241 251
312 312 311 309 307 305 305 305 303 301 299 295 291 286 281 275 268 262 257 256 256 250 246 244 239 238 237 235 235 237 238 236 234 233 235 234 231 229 231 233 233 232 231 233 234 231 226 227 230 231 230 231 230 226 226 229 230 228 220 212 212 215 216 215 206 192 191 200 205 220 239 242 246 247 245 251 239 219 228 243 250 254 261 271 269 232 229 240
316 316 314 313 311 309 309 309 308 308 306 303 298 294 290 283 274 267 262 259 255 246 242 241 240 238 236 235 233 232 233 233 231 229 231 232 229 227 228 230 232 232 230 232 234 230 225 225 229 230 229 230 229 226 223 227 230 226 220 214 210 213 214 216 216 201 191 201 201 200 219 235 245 249 247 251 244 221 221 237 250 253 260 273 272 226 217 229
319 318 316 315 313 312 312 311 310 310 310 309 308 305 302 294 285 277 270 263 252 242 239 237 237 237 235 234 233 231 230 230 230 228 228 230 228 225 225 226 229 230 229 229 230 228 223 222 225 227 227 227 226 224 223 225 228 225 220 215 209 211 212 214 218 211 203 205 201 194 200 217 234 245 249 250 251 246 236 238 251 256 259 273 276 243 222 223
319 319 318 316 314 312 312 311 310 311 312 314 315 313 311 305 299 291 281 267 248 236 235 234 233 233 232 231 232 231 228 226 227 226 226 227 228 224 221 221 223 225 226 225 226 226 223 220 222 223 223 224 223 222 222 224 225 223 220 215 211 210 210 214 216 216 217 217 211 201 196 205 219 227 239 250 253 256 246 237 250 257 254 260 271 270 232 217
319 319 318 315 313 310 310 309 308 309 310 311 312 310 309 308 304 302 295 272 249 233 229 230 228 228 228 227 227 228 225 222 223 224 224 224 226 226 222 221 221 223 224 224 224 224 223 222 222 222 221 221 222 221 220 221 221 219 217 214 212 210 209 214 215 217 224 225 224 217 207 211 217 214 220 235 241 245 248 243 249 256 255 255 259 250 215 210
319 319 317 314 311 308 307 307 306 306 306 307 308 307 307 305 302 305 305 285 264 246 231 227 225 222 222 220 222 226 222 214 213 219 224 224 224 225 224 221 221 222 225 227 227 225 223 223 223 222 222 222 222 222 222 221 220 219 219 217 216 215 216 220 221 222 226 228 227 224 221 224 226 224 221 219 223 227 232 243 248 252 252 251 254 241 216 212
319 318 316 314 313 310 307 305 304 303 303 304 307 307 305 302 300 304 310 306 285 259 237 225 220 217 216 213 214 220 217 207 200 203 214 222 223 223 224 222 220 220 222 225 227 226 222 222 223 223 223 222 222 223 225 225 223 222 224 227 226 225 227 228 228 229 229 231 229 225 227 231 233 237 236 229 227 221 217 232 245 248 242 239 247 248 242 243
320 318 316 316 315 312 308 305 303 302 304 305 307 306 303 300 301 304 310 317 297 262 242 224 213 210 209 202 198 207 210 205 200 198 202 213 220 222 223 222 219 219 221 222 223 225 223 221 222 225 225 224 222 224 226 225 224 222 223 227 228 226 229 231 232 234 233 233 233 230 232 237 239 243 243 240 238 231 230 237 244 249 245 237 242 251 250 245
324 323 320 319 317 314 311 309 308 307 307 307 306 302 300 299 300 302 309 316 301 263 243 223 207 202 203 198 197 203 205 202 199 199 200 203 211 218 223 225 221 218 221 223 221 223 224 220 218 223 225 225 223 223 225 225 223 223 223 225 228 227 227 229 231 234 234 234 235 237 240 243 243 245 244 246 247 241 240 241 238 247 252 244 244 247 229 200
327 325 322 321 321 316 312 311 310 309 308 307 303 299 297 297 298 300 306 313 308 269 240 223 207 200 199 197 199 202 201 197 194 194 195 196 199 206 216 226 227 222 220 223 222 221 222 220 220 222 222 224 226 224 223 224 222 223 227 227 227 226 224 225 227 230 234 236 236 238 242 242 240 240 241 248 253 249 244 237 231 241 251 247 246 245 219 199
327 324 321 320 322 318 313 314 312 311 309 305 300 296 294 292 293 298 303 310 312 285 244 227 214 204 199 195 196 197 195 192 190 189 188 190 190 192 199 208 216 217 214 215 219 218 217 219 221 222 221 221 226 228 224 222 220 222 229 230 227 225 224 223 224 227 233 238 238 237 239 241 241 240 238 242 248 246 240 230 223 232 241 239 241 246 238 234
327 324 321 321 324 323 321 321 318 314 310 303 299 295 290 288 290 296 300 305 310 298 257 236 223 214 208 199 192 191 191 186 184 183 184 188 190 192 195 198 205 210 208 206 210 211 212 214 215 217 221 221 222 228 226 220 218 219 223 228 228 226 227 228 228 229 231 234 237 238 239 241 246 250 249 240 233 235 234 226 220 224 231 232 234 240 244 242
327 325 324 328 332 332 329 327 322 316 310 305 301 293 286 286 290 294 297 301 306 299 269 245 232 225 222 212 198 190 187 183 181 180 182 186 189 194 196 196 200 206 206 205 206 205 208 212 209 205 216 224 222 223 223 220 217 216 218 224 226 223 222 227 231 230 229 229 230 233 237 244 253 260 264 260 249 243 238 227 222 223 229 233 231 234 242 241
330 329 329 333 336 335 332 328 321 314 309 305 302 295 287 285 288 292 296 300 303 295 275 256 245 237 231 225 215 198 185 184 183 182 185 187 187 191 195 195 197 200 203 205 204 203 203 208 206 193 192 219 226 224 224 223 221 220 221 224 227 226 222 224 229 228 226 226 226 227 227 234 246 237 239 254 261 251 236 225 223 223 226 231 229 231 241 241
334 334 334 335 336 335 333 328 320 312 305 301 300 296 288 284 285 288 295 298 298 295 284 269 258 249 238 233 227 207 190 189 189 187 190 189 186 187 189 191 194 196 200 201 201 203 201 203 204 191 183 203 224 231 231 229 225 225 226 227 230 232 229 228 230 228 225 223 222 224 214 200 225 237 230 239 253 250 231 217 220 222 222 225 224 227 235 236
338 338 338 336 335 335 333 328 321 313 303 295 295 292 284 280 282 286 292 294 294 296 293 279 267 257 246 239 231 219 206 197 194 196 194 188 186 186 185 188 192 195 199 200 200 203 201 200 201 194 184 190 207 228 240 238 230 226 225 225 228 232 234 233 232 230 229 225 220 220 214 201 209 231 222 219 235 248 239 216 217 219 219 223 224 225 231 233
341 341 339 336 336 336 333 327 322 316 303 294 293 289 279 276 279 283 288 291 294 297 296 286 274 263 254 243 235 231 223 209 203 203 193 184 185 185 184 187 190 193 198 200 201 202 200 196 195 190 184 182 189 208 226 233 230 223 221 220 221 225 229 232 231 228 230 229 222 220 218 211 201 197 212 220 229 247 249 229 223 223 221 227 232 230 230 231
341 342 341 337 335 336 333 327 323 319 308 300 298 289 275 272 274 279 285 287 291 297 299 291 278 267 257 245 238 238 233 223 213 203 191 184 184 184 183 186 188 190 195 198 200 202 199 194 191 186 182 180 182 195 211 224 227 222 219 218 216 214 218 226 229 225 225 228 227 223 219 217 208 195 207 224 232 242 249 248 242 232 225 228 235 232 228 228
341 342 342 339 336 337 335 331 327 322 315 309 302 286 273 270 270 275 284 288 290 297 300 296 284 270 257 246 241 239 238 234 219 200 191 188 185 182 183 186 188 189 193 196 199 201 198 193 189 185 181 179 182 190 203 220 229 226 219 215 213 208 206 217 228 226 223 225 228 227 222 221 219 210 207 216 224 235 248 254 252 243 230 226 229 231 227 231
343 342 343 341 339 340 339 335 330 326 321 317 306 284 269 267 267 270 280 285 290 298 301 300 293 276 260 249 244 241 241 239 222 201 194 191 186 184 184 186 188 189 191 194 197 200 198 192 188 185 182 181 183 186 194 211 226 232 226 216 211 206 202 208 222 227 224 222 223 226 225 221 221 221 218 219 224 230 243 252 254 251 240 225 223 230 230 231
344 345 344 342 341 343 343 339 333 327 327 324 310 285 267 265 266 267 275 285 291 298 301 301 298 285 269 258 249 244 245 241 226 208 199 192 187 186 185 187 189 189 191 193 195 200 199 192 187 186 185 183 183 186 188 192 209 227 231 222 211 206 205 205 212 222 225 221 216 221 228 226 221 224 226 227 228 230 236 247 250 247 243 227 219 225 228 228
345 347 347 342 341 344 346 344 338 329 330 330 313 288 273 269 266 266 276 290 296 298 300 301 301 292 280 269 256 250 248 240 228 216 206 195 188 186 187 190 190 189 191 193 194 198 199 192 188 187 186 183 182 186 186 182 192 211 223 220 206 204 208 204 200 209 221 220 213 214 225 227 223 226 230 229 231 230 232 239 242 241 242 232 219 220 223 227
345 347 349 344 341 345 347 347 345 336 331 332 319 297 282 272 268 271 280 292 298 299 298 298 301 300 288 273 262 257 252 241 231 224 214 200 189 186 188 190 190 189 191 193 194 197 198 194 189 187 187 183 183 188 188 184 189 201 212 212 197 197 210 205 194 196 209 212 204 202 212 217 218 224 228 227 228 228 230 234 234 234 237 231 222 220 222 227
346 347 349 346 342 346 349 349 350 345 335 332 324 305 288 277 276 278 282 292 300 299 296 295 298 303 295 276 264 258 253 247 237 229 220 207 196 190 186 187 190 189 190 193 194 195 198 195 189 188 187 184 186 190 188 186 189 195 205 207 191 189 205 208 194 189 200 207 197 193 206 214 216 222 222 210 204 211 221 229 229 227 229 228 224 219 215 220
345 347 348 347 343 346 351 351 351 351 341 333 328 310 292 285 284 282 280 289 298 298 296 296 297 300 297 278 267 258 252 252 245 233 224 214 203 195 186 184 188 190 191 193 193 193 197 196 191 189 185 184 188 190 186 187 189 191 199 203 190 185 196 208 199 188 189 201 201 194 199 214 220 224 220 205 198 206 217 228 230 224 223 228 229 223 214 211
Height
5876 5876 5876 5875 5875 5874 5873 5873 5872 5872 5871 5871 5871 5870 5870 5870 5870 5870 5869 5869 5869 5869 5869 5869 5870 5870 5870 5871 5871 5871 5872 5873 5874 5874 5874 5875 5877 5878 5878 5879 5879 5881 5882 5882 5883 5884 5885 5885 5886 5887 5888 5889 5890 5891 5893 5895 5896 5897 5898 5898 5898 5899 5900 5900 5901 5901 5901 5901 5902 5901 5902 5902 5901 5901 5902 5904 5905 5905 5907 5907 5907 5907 5907 5907 5907 5907 5907 5907
5874 5874 5873 5873 5872 5872 5871 5871 5870 5870 5870 5869 5869 5869 5869 5869 5868 5868 5868 5867 5867 5867 5868 5868 5868 5868 5869 5869 5870 5870 5871 5872 5872 5871 5871 5874 5876 5876 5877 5878 5879 5880 5881 5881 5882 5883 5884 5884 5885 5886 5887 5888 5888 5890 5891 5893 5894 5895 5896 5897 5898 5899 5899 5900 5901 5901 5901 5901 5902 5902 5902 5902 5902 5902 5902 5904 5905 5906 5906 5907 5907 5907 5907 5907 5907 5907 5907 5908
5872 5872 5871 5870 5870 5869 5869 5869 5868 5868 5868 5867 5867 5867 5867 5867 5867 5866 5866 5865 5865 5865 5866 5866 5867 5867 5867 5868 5868 5869 5870 5870 5870 5869 5871 5874 5875 5874 5876 5877 5878 5878 5879 5879 5880 5882 5882 5882 5884 5885 5886 5887 5888 5889 5890 5891 5893 5894 5895 5896 5897 5898 5899 5900 5901 5902 5901 5901 5902 5903 5903 5902 5902 5902 5902 5902 5904 5906 5906 5906 5907 5906 5906 5907 5907 5907 5907 5907
5870 5869 5869 5868 5867 5867 5866 5866 5866 5866 5865 5865 5865 5864 5864 5864 5864 5864 5864 5863 5863 5863 5863 5864 5865 5865 5865 5866 5866 5867 5868 5869 5868 5867 5870 5872 5872 5872 5874 5875 5876 5876 5877 5878 5879 5880 5881 5881 5883 5884 5885 5886 5887 5888 5889 5891 5892 5893 5894 5895 5897 5898 5899 5899 5900 5901 5901 5902 5902 5903 5904 5902 5901 5902 5902 5902 5903 5905 5906 5905 5906 5906 5906 5906 5906 5906 5907 5907
5868 5867 5866 5866 5865 5864 5864 5864 5863 5863 5863 5863 5862 5862 5862 5862 5862 5862 5862 5862 5861 5861 5861 5862 5863 5863 5863 5864 5864 5865 5867 5867 5865 5865 5868 5870 5870 5870 5871 5872 5874 5875 5875 5876 5877 5878 5879 5881 5882 5883 5884 5885 5885 5886 5888 5890 5891 5892 5893 5894 5896 5898 5899 5899 5900 5901 5902 5903 5903 5903 5904 5902 5901 5901 5901 5902 5903 5905 5906 5905 5905 5905 5906 5906 5906 5906 5906 5906
5865 5864 5864 5863 5863 5862 5861 5861 5861 5861 5860 5860 5860 5859 5859 5859 5859 5859 5859 5859 5859 5859 5859 5859 5860 5861 5861 5862 5862 5863 5865 5865 5863 5865 5867 5868 5868 5868 5869 5870 5871 5873 5874 5875 5876 5877 5878 5879 5881 5882 5883 5884 5885 5886 5887 5888 5890 5891 5892 5893 5895 5896 5898 5899 5899 5900 5902 5903 5903 5904 5904 5902 5902 5901 5901 5902 5903 5905 5906 5906 5905 5905 5905 5905 5905 5906 5905 5906
5862 5862 5861 5860 5860 5859 5859 5859 5858 5858 5857 5857 5857 5856 5856 5856 5856 5856 5856 5857 5857 5856 5857 5857 5858 5858 5859 5860 5860 5861 5862 5863 5863 5864 5864 5864 5865 5865 5867 5868 5869 5871 5872 5873 5874 5875 5876 5878 5880 5881 5882 5883 5884 5885 5885 5886 5888 5890 5891 5893 5894 5895 5897 5898 5899 5899 5900 5902 5903 5904 5903 5902 5902 5901 5900 5900 5902 5904 5905 5906 5905 5904 5905 5904 5905 5905 5905 5905
5859 5858 5858 5857 5857 5856 5856 5855 5855 5855 5854 5854 5854 5854 5854 5853 5854 5854 5853 5854 5854 5854 5854 5855 5856 5856 5856 5857 5858 5859 5859 5861 5862 5861 5860 5862 5863 5863 5864 5866 5867 5869 5870 5870 5871 5873 5874 5876 5878 5879 5880 5881 5882 5883 5884 5885 5887 5889 5890 5892 5893 5894 5896 5897 5898 5899 5900 5901 5902 5903 5903 5901 5901 5900 5900 5900 5902 5904 5904 5905 5905 5904 5904 5905 5904 5905 5905 5905
5855 5855 5854 5854 5853 5853 5853 5852 5852 5852 5851 5851 5851 5851 5850 5850 5851 5851 5850 5851 5851 5851 5851 5852 5853 5853 5854 5855 5857 5857 5856 5858 5859 5858 5858 5860 5861 5862 5863 5864 5865 5866 5867 5868 5869 5870 5872 5874 5876 5877 5878 5879 5880 5881 5882 5883 5885 5888 5889 5890 5892 5893 5895 5896 5897 5898 5899 5900 5901 5902 5902 5901 5901 5900 5900 5900 5901 5904 5904 5905 5905 5904 5905 5905 5905 5904 5904 5905
5851 5851 5850 5850 5849 5849 5849 5848 5848 5848 5848 5848 5848 5847 5847 5847 5847 5847 5848 5847 5848 5848 5848 5850 5850 5851 5851 5852 5855 5853 5852 5856 5857 5856 5856 5858 5859 5860 5861 5862 5864 5864 5865 5866 5867 5868 5870 5872 5874 5875 5875 5876 5877 5879 5880 5882 5884 5886 5887 5888 5890 5892 5893 5894 5896 5897 5898 5899 5900 5901 5901 5901 5901 5900 5899 5898 5900 5903 5904 5904 5905 5905 5905 5906 5905 5905 5905 5904
5847 5846 5846 5846 5845 5844 5844 5844 5844 5844 5844 5844 5844 5844 5844 5844 5844 5844 5844 5844 5845 5845 5845 5846 5847 5849 5849 5851 5852 5848 5848 5854 5856 5855 5854 5855 5856 5857 5859 5860 5861 5862 5863 5864 5865 5867 5868 5870 5871 5871 5873 5874 5876 5877 5878 5881 5883 5884 5885 5886 5888 5890 5891 5893 5895 5896 5897 5898 5899 5900 5900 5900 5900 5900 5898 5897 5899 5903 5904 5904 5905 5905 5905 5905 5905 5905 5905 5905
5842 5842 5841 5841 5840 5840 5840 5840 5839 5839 5840 5840 5840 5840 5840 5840 5840 5840 5841 5841 5841 5841 5842 5842 5844 5845 5846 5850 5848 5843 5847 5852 5853 5853 5852 5852 5853 5855 5857 5858 5859 5860 5861 5862 5863 5864 5865 5867 5867 5869 5871 5872 5873 5875 5877 5880 5881 5882 5883 5884 5886 5887 5889 5891 5894 5896 5897 5898 5898 5899 5899 5899 5900 5900 5897 5895 5898 5901 5904 5905 5905 5905 5905 5905 5905 5905 5905 5905
5838 5837 5836 5836 5836 5835 5835 5835 5835 5835 5835 5835 5835 5836 5836 5835 5835 5836 5837 5837 5838 5838 5838 5839 5840 5842 5844 5848 5843 5839 5845 5848 5849 5851 5850 5850 5850 5852 5854 5855 5856 5857 5858 5859 5860 5861 5863 5864 5865 5867 5868 5869 5871 5873 5875 5877 5879 5880 5881 5882 5884 5885 5887 5890 5892 5893 5895 5897 5897 5897 5898 5898 5899 5901 5897 5893 5897 5900 5902 5904 5904 5905 5905 5905 5905 5905 5905 5905
5833 5832 5832 5831 5831 5830 5830 5830 5830 5829 5829 5830 5830 5830 5831 5831 5831 5832 5832 5833 5833 5834 5835 5835 5837 5838 5841 5845 5839 5837 5843 5845 5847 5849 5847 5847 5847 5849 5851 5852 5853 5854 5856 5857 5857 5858 5860 5861 5862 5864 5865 5867 5869 5870 5872 5873 5874 5876 5878 5879 5881 5884 5886 5888 5889 5891 5893 5895 5896 5895 5897 5898 5898 5901 5897 5891 5896 5899 5900 5903 5904 5904 5905 5905 5905 5905 5905 5905
5829 5828 5827 5826 5826 5825 5825 5824 5824 5824 5824 5824 5824 5825 5826 5825 5826 5827 5828 5828 5829 5830 5830 5831 5832 5834 5838 5840 5835 5836 5840 5842 5844 5843 5842 5843 5843 5846 5849 5849 5850 5851 5853 5854 5854 5856 5857 5858 5859 5861 5863 5865 5866 5867 5868 5869 5871 5874 5875 5877 5880 5883 5885 5886 5887 5889 5891 5893 5894 5895 5896 5897 5898 5900 5896 5890 5894 5898 5899 5901 5904 5904 5904 5904 5905 5904 5905 5905
5825 5823 5822 5821 5821 5820 5820 5819 5819 5819 5818 5818 5819 5819 5820 5820 5820 5821 5823 5823 5824 5825 5825 5826 5828 5830 5834 5836 5833 5833 5836 5838 5838 5838 5839 5841 5841 5843 5845 5846 5847 5848 5850 5851 5851 5852 5853 5855 5856 5859 5860 5862 5863 5865 5866 5867 5870 5872 5873 5876 5879 5882 5884 5884 5885 5888 5890 5891 5892 5894 5896 5896 5898 5900 5895 5890 5894 5897 5898 5901 5903 5904 5904 5904 5904 5904 5904 5904
5820 5819 5817 5816 5815 5814 5814 5814 5813 5813 5813 5813 5813 5813 5814 5814 5814 5816 5817 5818 5818 5819 5820 5822 5823 5825 5829 5831 5830 5830 5832 5834 5834 5836 5838 5838 5839 5840 5841 5843 5844 5845 5846 5847 5848 5849 5850 5852 5854 5855 5857 5859 5861 5863 5863 5865 5869 5871 5873 5875 5878 5880 5882 5883 5884 5886 5887 5889 5890 5893 5895 5895 5897 5899 5895 5891 5893 5895 5897 5899 5901 5903 5903 5903 5904 5905 5904 5904
5815 5813 5812 5810 5810 5809 5808 5808 5808 5807 5807 5807 5807 5807 5807 5808 5808 5810 5811 5812 5812 5813 5814 5816 5818 5821 5824 5826 5827 5827 5828 5830 5831 5833 5835 5835 5835 5836 5837 5840 5841 5841 5842 5843 5846 5847 5848 5849 5850 5851 5853 5856 5859 5860 5862 5866 5868 5870 5872 5874 5876 5878 5880 5882 5883 5884 5885 5888 5890 5891 5894 5895 5896 5898 5895 5891 5892 5894 5897 5899 5900 5902 5902 5903 5904 5904 5904 5904
5809 5808 5806 5805 5804 5803 5802 5802 5801 5801 5801 5801 5801 5801 5801 5802 5802 5803 5805 5806 5806 5807 5808 5810 5812 5816 5820 5821 5822 5823 5823 5825 5826 5828 5830 5831 5832 5832 5833 5836 5837 5838 5838 5840 5843 5844 5845 5846 5845 5848 5852 5855 5858 5859 5863 5866 5867 5868 5870 5872 5874 5877 5879 5881 5883 5884 5885 5887 5889 5891 5893 5895 5896 5896 5895 5892 5889 5891 5896 5898 5899 5901 5901 5902 5903 5903 5902 5902
5804 5802 5801 5799 5798 5797 5795 5795 5795 5794 5794 5794 5795 5795 5794 5795 5795 5796 5799 5800 5800 5801 5802 5803 5807 5812 5814 5814 5816 5817 5818 5820 5822 5825 5826 5827 5827 5828 5829 5831 5833 5834 5836 5839 5840 5841 5841 5841 5843 5848 5853 5854 5856 5858 5861 5862 5863 5865 5867 5868 5872 5874 5877 5880 5881 5883 5886 5887 5888 5890 5892 5895 5896 5895 5894 5892 5888 5888 5894 5897 5898 5898 5898 5900 5901 5901 5901 5901
5797 5796 5794 5793 5791 5790 5789 5787 5787 5787 5787 5787 5788 5788 5788 5788 5789 5789 5792 5794 5795 5794 5796 5797 5799 5806 5809 5808 5810 5813 5813 5815 5818 5821 5823 5824 5823 5823 5825 5828 5829 5831 5835 5837 5836 5836 5835 5837 5845 5849 5850 5851 5853 5855 5857 5858 5860 5863 5864 5865 5868 5871 5874 5879 5880 5881 5886 5888 5888 5889 5891 5892 5894 5895 5893 5890 5888 5889 5892 5896 5897 5898 5898 5898 5899 5900 5900 5901
5790 5788 5787 5785 5784 5783 5782 5780 5780 5779 5779 5779 5780 5780 5780 5781 5782 5782 5785 5789 5790 5788 5789 5793 5793 5799 5805 5802 5802 5805 5807 5809 5813 5816 5819 5819 5819 5820 5822 5824 5826 5829 5832 5831 5830 5831 5832 5839 5847 5847 5845 5847 5848 5851 5853 5855 5857 5859 5861 5863 5865 5868 5871 5876 5879 5880 5884 5887 5887 5888 5889 5890 5892 5894 5891 5887 5887 5889 5891 5894 5897 5898 5899 5899 5899 5899 5900 5901
5783 5780 5779 5778 5775 5775 5774 5772 5771 5772 5771 5771 5772 5771 5772 5774 5774 5776 5778 5781 5786 5783 5781 5786 5789 5792 5798 5797 5794 5797 5802 5805 5808 5811 5813 5813 5815 5817 5818 5821 5823 5826 5826 5826 5827 5829 5834 5841 5843 5841 5841 5843 5844 5847 5849 5850 5852 5855 5858 5860 5863 5866 5869 5873 5877 5880 5882 5885 5887 5887 5888 5889 5890 5891 5890 5887 5886 5887 5889 5892 5895 5897 5899 5900 5899 5898 5899 5901
5775 5773 5771 5770 5768 5766 5766 5764 5762 5763 5763 5763 5763 5763 5764 5765 5765 5768 5770 5774 5781 5779 5775 5779 5784 5786 5791 5790 5787 5788 5795 5799 5801 5804 5806 5808 5811 5812 5814 5816 5819 5821 5821 5823 5825 5827 5833 5838 5836 5835 5838 5839 5841 5843 5844 5846 5848 5851 5855 5857 5861 5866 5868 5870 5876 5880 5882 5883 5885 5886 5886 5886 5886 5888 5889 5888 5886 5884 5885 5888 5891 5894 5897 5898 5898 5898 5899 5900
5767 5765 5763 5762 5760 5757 5757 5756 5753 5753 5753 5753 5754 5754 5755 5756 5757 5759 5762 5768 5772 5770 5770 5773 5775 5778 5781 5781 5780 5781 5787 5792 5796 5798 5799 5803 5806 5808 5809 5811 5814 5816 5817 5820 5821 5824 5830 5833 5830 5831 5833 5836 5838 5839 5841 5843 5845 5849 5852 5856 5860 5864 5866 5868 5872 5878 5881 5881 5882 5883 5883 5883 5884 5886 5887 5887 5887 5884 5881 5883 5886 5890 5893 5896 5898 5899 5898 5899
5759 5757 5755 5754 5753 5750 5749 5747 5745 5744 5744 5743 5743 5744 5745 5746 5749 5750 5754 5761 5761 5759 5763 5765 5765 5768 5772 5775 5775 5775 5779 5786 5791 5791 5793 5797 5800 5802 5803 5805 5809 5811 5813 5816 5817 5820 5825 5827 5826 5827 5831 5833 5835 5836 5839 5841 5842 5845 5850 5855 5859 5860 5863 5866 5868 5872 5876 5879 5880 5880 5881 5882 5882 5883 5885 5886 5887 5884 5880 5880 5883 5886 5890 5894 5897 5898 5898 5898
5753 5751 5748 5745 5745 5744 5742 5740 5738 5736 5735 5735 5734 5734 5735 5735 5738 5742 5747 5751 5749 5749 5752 5753 5756 5758 5761 5765 5767 5768 5773 5780 5784 5785 5787 5791 5794 5797 5798 5800 5804 5807 5809 5810 5811 5815 5821 5823 5822 5825 5829 5829 5831 5834 5837 5839 5840 5843 5848 5853 5855 5857 5859 5862 5864 5865 5869 5875 5877 5877 5878 5880 5880 5880 5883 5884 5885 5885 5880 5878 5881 5883 5886 5891 5895 5897 5897 5897
5747 5745 5743 5740 5737 5736 5736 5735 5733 5730 5728 5727 5726 5726 5725 5725 5728 5732 5738 5740 5736 5737 5739 5741 5747 5749 5751 5757 5760 5762 5767 5772 5777 5780 5780 5782 5786 5791 5792 5795 5798 5802 5805 5805 5807 5814 5819 5820 5820 5823 5825 5825 5829 5833 5836 5837 5837 5840 5845 5848 5851 5854 5856 5859 5861 5862 5865 5869 5871 5873 5875 5876 5876 5877 5880 5882 5882 5883 5879 5877 5878 5881 5884 5888 5892 5894 5895 5895
5743 5741 5738 5736 5732 5729 5729 5728 5727 5725 5723 5721 5720 5719 5717 5716 5718 5721 5726 5730 5726 5725 5729 5734 5739 5742 5746 5750 5753 5756 5759 5763 5768 5771 5771 5773 5778 5783 5786 5790 5793 5795 5799 5801 5804 5809 5813 5815 5816 5817 5820 5823 5827 5831 5832 5833 5834 5838 5842 5844 5848 5850 5853 5856 5857 5858 5861 5860 5862 5868 5871 5872 5873 5874 5876 5878 5878 5879 5879 5876 5875 5878 5882 5885 5888 5891 5893 5894
5739 5736 5734 5732 5729 5725 5723 5721 5720 5719 5718 5716 5714 5713 5711 5709 5710 5711 5714 5719 5716 5715 5721 5727 5732 5735 5739 5743 5746 5749 5752 5754 5758 5762 5764 5765 5769 5775 5780 5784 5786 5788 5793 5795 5797 5802 5807 5810 5810 5812 5816 5820 5823 5826 5828 5829 5831 5835 5838 5840 5843 5845 5848 5851 5853 5857 5855 5851 5854 5862 5866 5869 5869 5869 5872 5874 5875 5877 5878 5876 5872 5874 5879 5882 5884 5888 5890 5893
5735 5732 5729 5727 5724 5722 5719 5717 5714 5713 5711 5710 5709 5708 5707 5705 5703 5703 5705 5706 5705 5708 5714 5720 5725 5727 5730 5737 5740 5742 5744 5746 5750 5754 5756 5758 5760 5766 5770 5774 5777 5780 5783 5787 5791 5796 5800 5802 5804 5807 5812 5815 5818 5821 5824 5826 5828 5831 5833 5835 5837 5840 5843 5845 5848 5852 5847 5845 5853 5859 5861 5863 5863 5865 5869 5871 5873 5875 5877 5876 5871 5871 5877 5880 5882 5885 5888 5891
5731 5728 5725 5722 5720 5717 5715 5713 5710 5708 5706 5705 5704 5702 5701 5700 5697 5696 5696 5693 5694 5703 5709 5712 5716 5718 5721 5727 5730 5731 5735 5739 5742 5745 5747 5751 5753 5757 5763 5767 5771 5773 5777 5782 5785 5788 5794 5798 5801 5804 5807 5810 5813 5816 5819 5821 5823 5825 5827 5830 5832 5834 5838 5839 5841 5843 5841 5844 5854 5858 5859 5858 5857 5861 5866 5867 5870 5873 5874 5874 5871 5870 5874 5878 5880 5884 5887 5890
5728 5724 5720 5717 5715 5712 5710 5708 5706 5704 5702 5700 5699 5696 5695 5695 5691 5690 5690 5687 5690 5699 5701 5702 5707 5709 5710 5717 5721 5721 5723 5728 5733 5738 5741 5744 5747 5751 5757 5763 5767 5771 5776 5780 5781 5784 5791 5795 5796 5800 5804 5806 5809 5811 5813 5815 5819 5821 5823 5825 5828 5831 5833 5834 5837 5839 5840 5845 5851 5856 5857 5854 5854 5859 5863 5863 5867 5870 5872 5872 5871 5870 5872 5876 5878 5882 5886 5888
5723 5720 5716 5712 5710 5708 5706 5703 5701 5699 5697 5696 5694 5691 5690 5687 5684 5685 5686 5684 5686 5690 5690 5693 5699 5699 5701 5710 5712 5705 5708 5717 5721 5725 5731 5737 5742 5745 5750 5756 5762 5767 5770 5771 5774 5780 5785 5788 5792 5796 5799 5802 5805 5807 5810 5814 5817 5820 5823 5825 5827 5829 5830 5832 5835 5837 5840 5843 5847 5851 5851 5849 5852 5858 5861 5862 5865 5868 5870 5870 5869 5868 5870 5874 5876 5879 5882 5886
5717 5715 5712 5709 5705 5703 5701 5698 5696 5694 5692 5690 5687 5685 5684 5681 5677 5678 5680 5680 5679 5679 5682 5687 5690 5691 5694 5697 5692 5688 5700 5710 5708 5712 5721 5729 5736 5741 5746 5751 5757 5761 5762 5764 5769 5774 5777 5783 5790 5793 5794 5799 5803 5805 5808 5811 5814 5818 5821 5821 5823 5826 5829 5831 5834 5836 5839 5841 5842 5844 5845 5847 5852 5856 5859 5860 5862 5866 5867 5868 5867 5865 5866 5870 5873 5875 5879 5883
5712 5709 5707 5705 5702 5698 5695 5693 5690 5688 5686 5683 5681 5679 5677 5675 5672 5672 5674 5674 5672 5671 5675 5679 5681 5682 5683 5682 5679 5685 5697 5700 5700 5708 5716 5720 5729 5738 5743 5746 5751 5756 5757 5760 5765 5768 5771 5779 5786 5788 5790 5795 5799 5802 5804 5806 5810 5814 5815 5817 5821 5825 5828 5830 5831 5833 5835 5836 5838 5841 5843 5847 5851 5852 5854 5856 5858 5862 5864 5865 5865 5862 5862 5865 5868 5872 5877 5880
5708 5705 5702 5700 5699 5694 5690 5688 5685 5682 5679 5677 5675 5673 5671 5670 5667 5667 5668 5668 5666 5665 5667 5671 5674 5674 5673 5674 5678 5684 5688 5689 5695 5705 5709 5713 5722 5729 5734 5739 5745 5749 5752 5756 5760 5761 5766 5774 5778 5781 5786 5791 5795 5798 5800 5802 5806 5809 5811 5815 5820 5823 5825 5827 5827 5829 5831 5832 5836 5840 5841 5844 5846 5847 5850 5852 5853 5857 5859 5861 5862 5859 5857 5859 5863 5868 5874 5878
5705 5701 5697 5695 5694 5690 5685 5682 5679 5676 5673 5670 5668 5666 5665 5665 5663 5662 5662 5661 5661 5660 5660 5663 5665 5665 5666 5670 5675 5679 5681 5684 5691 5697 5701 5705 5708 5710 5715 5721 5723 5725 5731 5739 5746 5754 5761 5766 5770 5776 5782 5787 5791 5793 5795 5798 5803 5806 5809 5812 5815 5817 5819 5821 5822 5825 5828 5831 5834 5837 5838 5840 5840 5842 5847 5850 5850 5852 5854 5856 5858 5857 5855 5855 5859 5864 5869 5875
5701 5697 5693 5690 5689 5684 5679 5675 5672 5669 5667 5664 5662 5660 5659 5659 5659 5658 5657 5655 5653 5654 5654 5653 5655 5659 5660 5663 5667 5671 5673 5679 5684 5687 5691 5694 5696 5698 5702 5707 5709 5713 5720 5726 5734 5745 5754 5758 5764 5771 5777 5782 5784 5785 5787 5793 5799 5803 5804 5806 5809 5813 5816 5818 5820 5823 5827 5829 5831 5834 5835 5836 5837 5839 5843 5846 5848 5849 5850 5851 5853 5855 5854 5854 5857 5861 5866 5871
5697 5692 5688 5684 5681 5676 5672 5669 5666 5663 5661 5659 5656 5655 5654 5654 5654 5653 5652 5650 5648 5648 5647 5646 5648 5651 5652 5655 5659 5661 5665 5672 5675 5677 5680 5683 5687 5690 5694 5702 5709 5715 5721 5725 5731 5741 5748 5752 5758 5765 5772 5776 5776 5777 5782 5789 5794 5797 5798 5798 5802 5807 5812 5815 5818 5821 5825 5827 5829 5831 5833 5834 5837 5839 5839 5841 5844 5846 5848 5849 5850 5852 5852 5852 5856 5860 5863 5868
5693 5689 5684 5680 5677 5672 5668 5665 5661 5658 5656 5654 5651 5650 5649 5649 5649 5649 5648 5645 5643 5642 5641 5642 5643 5643 5644 5648 5649 5652 5660 5665 5666 5669 5671 5672 5677 5681 5688 5697 5704 5709 5715 5721 5728 5735 5738 5744 5751 5758 5765 5769 5771 5775 5781 5786 5791 5794 5796 5796 5799 5803 5809 5812 5813 5817 5822 5825 5828 5830 5832 5834 5836 5837 5836 5838 5841 5843 5846 5847 5848 5849 5850 5850 5853 5858 5861 5865
5690 5685 5681 5677 5674 5671 5666 5662 5657 5654 5651 5649 5646 5645 5645 5645 5644 5644 5643 5641 5639 5638 5638 5638 5637 5636 5638 5640 5641 5647 5653 5655 5657 5659 5658 5661 5668 5675 5682 5689 5695 5701 5705 5711 5718 5722 5726 5736 5745 5753 5758 5763 5770 5776 5778 5782 5788 5792 5795 5796 5798 5801 5805 5808 5810 5815 5820 5823 5826 5829 5831 5833 5834 5833 5834 5837 5838 5840 5843 5845 5846 5847 5847 5848 5851 5855 5858 5862
5686 5682 5678 5674 5670 5667 5663 5658 5654 5650 5646 5643 5641 5640 5641 5640 5640 5640 5639 5637 5636 5634 5634 5634 5632 5632 5633 5634 5638 5641 5641 5643 5647 5646 5647 5657 5665 5671 5676 5681 5687 5693 5698 5706 5713 5717 5724 5733 5741 5749 5755 5759 5767 5773 5774 5778 5783 5786 5790 5793 5795 5797 5801 5805 5809 5814 5817 5820 5823 5826 5828 5831 5832 5832 5833 5835 5836 5837 5840 5842 5844 5845 5845 5847 5850 5853 5855 5858
5683 5678 5674 5670 5666 5662 5657 5653 5649 5645 5641 5639 5637 5636 5636 5636 5636 5636 5635 5634 5632 5631 5631 5630 5628 5629 5630 5631 5634 5633 5631 5634 5636 5638 5648 5659 5662 5666 5671 5674 5680 5687 5696 5705 5710 5713 5720 5727 5734 5745 5752 5754 5760 5767 5769 5771 5774 5778 5783 5787 5792 5795 5798 5802 5806 5810 5813 5816 5819 5822 5825 5829 5832 5832 5833 5833 5834 5836 5837 5840 5842 5843 5843 5845 5848 5851 5854 5856
5680 5677 5673 5667 5661 5658 5653 5648 5643 5640 5637 5635 5633 5632 5632 5632 5633 5632 5632 5631 5630 5629 5628 5627 5625 5625 5626 5628 5627 5626 5625 5624 5626 5636 5650 5656 5657 5661 5665 5668 5674 5682 5690 5697 5701 5705 5713 5720 5728 5737 5743 5747 5753 5759 5761 5763 5767 5773 5777 5782 5787 5793 5796 5798 5802 5806 5809 5812 5815 5819 5823 5826 5829 5831 5832 5832 5833 5834 5835 5837 5840 5841 5841 5842 5845 5849 5852 5854
5677 5674 5671 5666 5659 5653 5649 5643 5639 5636 5633 5631 5630 5629 5629 5629 5629 5629 5629 5628 5627 5627 5625 5624 5623 5622 5623 5624 5622 5621 5618 5616 5622 5636 5645 5648 5652 5656 5658 5663 5669 5675 5682 5688 5694 5701 5709 5716 5723 5730 5736 5742 5748 5755 5760 5762 5764 5767 5772 5777 5782 5789 5794 5796 5798 5802 5806 5810 5813 5816 5821 5823 5825 5829 5831 5831 5832 5833 5833 5834 5837 5839 5840 5841 5843 5846 5850 5852
5673 5669 5666 5662 5657 5651 5645 5639 5634 5632 5630 5628 5627 5626 5626 5626 5626 5626 5626 5625 5625 5624 5623 5622 5620 5619 5620 5620 5618 5617 5614 5613 5621 5631 5637 5642 5647 5650 5654 5659 5664 5669 5676 5682 5689 5696 5702 5710 5718 5725 5731 5736 5743 5751 5756 5759 5762 5765 5769 5775 5779 5784 5790 5792 5795 5799 5804 5808 5811 5814 5818 5820 5821 5825 5828 5829 5830 5832 5832 5831 5833 5837 5839 5840 5841 5844 5847 5850
5670 5666 5661 5657 5653 5649 5644 5638 5632 5629 5627 5625 5624 5623 5623 5623 5623 5623 5623 5623 5622 5621 5621 5620 5618 5617 5616 5616 5615 5614 5611 5611 5618 5626 5630 5637 5642 5646 5651 5656 5660 5665 5671 5676 5682 5688 5696 5704 5711 5717 5724 5731 5738 5746 5748 5752 5759 5762 5765 5772 5776 5780 5785 5789 5793 5797 5801 5805 5809 5812 5815 5817 5819 5822 5824 5825 5828 5830 5830 5829 5831 5834 5836 5839 5840 5842 5845 5847
5668 5664 5660 5654 5649 5646 5642 5636 5631 5627 5625 5623 5622 5621 5621 5621 5621 5621 5620 5620 5620 5619 5618 5618 5616 5615 5614 5613 5612 5611 5608 5609 5615 5621 5625 5631 5637 5642 5647 5652 5657 5662 5666 5670 5674 5681 5690 5698 5704 5711 5719 5725 5733 5739 5741 5745 5753 5757 5761 5767 5773 5777 5782 5787 5792 5797 5800 5803 5808 5811 5813 5815 5816 5818 5820 5822 5824 5826 5827 5827 5829 5832 5834 5837 5839 5840 5843 5845
5666 5662 5659 5653 5647 5643 5639 5633 5628 5625 5622 5621 5620 5619 5619 5619 5619 5618 5618 5618 5617 5616 5615 5615 5614 5613 5611 5610 5610 5609 5607 5608 5611 5615 5619 5626 5632 5637 5641 5647 5652 5658 5661 5664 5669 5676 5684 5692 5699 5707 5716 5724 5731 5736 5738 5741 5747 5753 5757 5762 5769 5775 5779 5784 5790 5795 5798 5802 5806 5810 5811 5812 5813 5814 5817 5820 5821 5822 5823 5825 5827 5830 5832 5834 5837 5839 5841 5843
5664 5660 5657 5652 5645 5641 5636 5630 5626 5623 5621 5619 5618 5617 5617 5617 5617 5616 5616 5616 5615 5613 5613 5612 5611 5610 5609 5608 5607 5606 5606 5606 5607 5610 5615 5620 5626 5631 5636 5641 5647 5652 5656 5658 5664 5672 5681 5689 5696 5703 5713 5723 5729 5732 5735 5737 5742 5748 5753 5758 5764 5771 5775 5781 5786 5792 5796 5800 5804 5807 5808 5809 5810 5811 5814 5817 5817 5817 5819 5822 5825 5827 5830 5832 5834 5837 5839 5842
5662 5658 5655 5650 5644 5640 5636 5629 5624 5621 5619 5617 5616 5615 5615 5615 5614 5613 5613 5613 5612 5611 5610 5609 5608 5607 5606 5605 5604 5603 5603 5603 5603 5606 5611 5615 5620 5626 5631 5635 5641 5647 5651 5655 5661 5669 5678 5687 5694 5699 5709 5717 5722 5726 5731 5733 5737 5743 5748 5755 5762 5768 5773 5779 5784 5789 5794 5799 5802 5804 5807 5808 5807 5809 5812 5814 5813 5813 5817 5820 5822 5825 5828 5831 5832 5834 5837 5840